[Iaude] MPEC D58: 2024 DM [a=0.93,e=0.47,i=7.7,H=24.9]
    mpec at cfa.harvard.edu 
    mpec at cfa.harvard.edu
       
    Sun Feb 18 23:47:36 EST 2024
    
    
  
M.P.E.C. 2024-D58                             Issued 2024 February 19, 04:46 UT
     The Minor Planet Electronic Circulars contain information on unusual
         minor planets, routine data on comets and natural satellites,
         and occasional editorial announcements.  They are published
    on behalf of Division F of the International Astronomical Union by the
          Minor Planet Center, Smithsonian Astrophysical Observatory,
                          Cambridge, MA 02138, U.S.A.
			  
             Prepared using the Tamkin Foundation Computer Network
                              MPC at CFA.HARVARD.EDU
            URL https://www.minorplanetcenter.net/    ISSN 1523-6714
                                    2024 DM                                     
Observations:
     K24D00M*1C2024 02 17.24885310 11 56.368+37 56 06.79         21.33GVED058G96
     K24D00M 1C2024 02 17.25454110 11 52.912+37 56 09.56         21.37GVED058G96
     K24D00M 1C2024 02 17.26022110 11 49.434+37 56 12.44         20.22GVED058G96
     K24D00M 1C2024 02 17.26590810 11 45.917+37 56 15.11         21.26GVED058G96
     K24D00M  C2024 02 17.30211610 11 23.338+37 56 27.37         20.4 GVED058H01
     K24D00M  C2024 02 17.30753310 11 20.026+37 56 29.16         21.2 GVED058H01
     K24D00M  C2024 02 17.31864310 11 13.230+37 56 32.77         20.9 GVED058H01
     K24D00M  C2024 02 17.32334810 11 10.360+37 56 34.18         21.2 GVED058H01
     K24D00M KC2024 02 17.35328310 10 52.468+37 56 45.13         21.39GVED058I52
     K24D00M KC2024 02 17.35763210 10 49.840+37 56 46.03         20.73GVED058I52
     K24D00M KC2024 02 17.36196210 10 47.190+37 56 47.40         20.98GVED058I52
     K24D00M KC2024 02 17.36629510 10 44.569+37 56 48.01         21.00GVED058I52
     K24D00M KC2024 02 18.28143110 02 38.717+37 59 42.00         21.01GVED058I52
     K24D00M KC2024 02 18.28607210 02 36.229+37 59 42.72         21.26GVED058I52
     K24D00M KC2024 02 18.29070710 02 33.706+37 59 43.22         21.26GVED058I52
     K24D00M KC2024 02 18.29534510 02 31.286+37 59 44.05         21.03GVED058I52
     K24D00M KC2024 02 19.16460609 55 44.544+37 59 28.32         21.05GVED058V06
     K24D00M KC2024 02 19.16798009 55 42.978+37 59 28.54         21.40GVED058V06
     K24D00M KC2024 02 19.17135609 55 41.430+37 59 28.93         21.24GVED058V06
     K24D00M KC2024 02 19.17473109 55 39.835+37 59 29.47         21.31GVED058V06
Observer details:
G96 Mt. Lemmon Survey.  Observers T. Beuden, J. K. Hogan.  Measurers T.
    Beuden, V. F. Carvajal, D. Fay, J. B. Fazekas, D. C. Fuls, A. R. Gibbs, A.
    D. Grauer, H. Groeller, J. K. Hogan, R. A. Kowalski, S. M. Larson, G. J.
    Leonard, D. Rankin, R. L. Seaman, F. C. Shelly, K. W. Wierzchos.  1.5-m
    reflector + 10K CCD.
H01 Magdalena Ridge Observatory, Socorro.  Observers W. H. Ryan, E. V. Ryan.
    Measurer W. H. Ryan.  2.4-m f/8.9 Ritchey-Chretien + CCD.
I52 Steward Observatory, Mt. Lemmon Station.  Observer J. B. Fazekas.
    Measurers E. C. Beshore, D. Fay, J. B. Fazekas, D. C. Fuls, A. R. Gibbs,
    A. D. Grauer, H. Groeller, J. K. Hogan, R. A. Kowalski, S. M. Larson, G.
    J. Leonard, D. Rankin, R. L. Seaman, F. C. Shelly, K. W. Wierzchos.  1.0-m
    prime focus + CCD.
V06 Catalina Sky Survey-Kuiper.  Observer J. B. Fazekas.  Measurers T. Beuden,
    V. F. Carvajal, D. Fay, J. B. Fazekas, D. C. Fuls, A. R. Gibbs, A. D.
    Grauer, H. Groeller, J. K. Hogan, R. A. Kowalski, S. M. Larson, G. J.
    Leonard, D. Rankin, R. L. Seaman, F. C. Shelly, K. W. Wierzchos.  1.55-m
    reflector + 1K CCD.
Orbital elements:
2024 DM                                                  Earth MOID = 0.0154 AU
Epoch 2024 Mar. 31.0 TT = JDT 2460400.5                 MPC                     
M 130.86455              (2000.0)            P               Q                  
n   1.09178275     Peri.  243.11817     +0.96681763     -0.23380785             
a   0.9340682      Node   130.21752     +0.25463030     +0.91454440             
e   0.4687085      Incl.    7.74792     -0.02066615     +0.33006429             
P   0.90           H   24.95          G   0.15           U   8                  
Residuals in seconds of arc
240217 G96  0.2-  0.2-    240217 H01  0.1+  0.0     240218 I52  0.4-  0.1-
240217 G96  0.2+  0.0     240217 I52  0.1-  0.0     240218 I52  0.4+  0.2+
240217 G96  0.3+  0.3+    240217 I52  0.1+  0.2-    240219 V06  0.2-  0.1+
240217 G96  0.1-  0.4+    240217 I52  0.2-  0.1+    240219 V06  0.1-  0.1-
240217 H01  0.1+  0.1+    240217 I52  0.1-  0.3-    240219 V06  0.2+  0.1-
240217 H01  0.1+  0.1+    240218 I52  0.0   0.1-    240219 V06  0.0   0.1+
240217 H01  0.1+  0.1+    240218 I52  0.0   0.0
Ephemeris:
2024 DM                  a,e,i = 0.93, 0.47, 8                   q = 0.4963
Date    TT    R. A. (2000) Decl.     Delta      r    Elong.  Phase     V
2024 01 20    18 49 27.4 -30 01 53   0.1368  0.8563    19.6   157.4    30.4
...
2024 02 04    15 29 17.1 +01 40 11   0.04459 0.9829    85.2    92.2    21.4
...
2024 02 12    11 28 02.3 +35 16 23   0.06606 1.0434   147.6    30.5    20.5
...
2024 02 18    10 05 01.6 +37 59 03   0.1070  1.0853   154.0    23.5    21.4
2024 02 19    09 56 54.7 +37 59 46   0.1144  1.0920   153.6    23.8    21.6
2024 02 20    09 49 48.6 +37 57 42   0.1220  1.0986   152.9    24.2    21.7
...
2024 02 26    09 21 41.1 +37 16 32   0.1696  1.1366   147.5    27.9    22.6
...
2024 03 05    09 05 04.4 +35 58 18   0.2371  1.1826   139.7    32.9    23.6
...
2024 03 20    09 00 07.6 +33 22 07   0.3733  1.2549   126.7    39.5    24.9
A. U. Tomatic                (C) Copyright 2024 MPC           M.P.E.C. 2024-D58
    
    
More information about the Iaude
mailing list